Weather in Kulgeshi

Russia / Chuvash Republic     55°45′32″N   47°57′22″E
temp.,
°C
wind,
m/s
gust,
m/s
humid.,
%
clouds,
%
prec.,
mm/h
press.,
hPa
HPBL,
m
24 may, tue
tue2400:000wsw4898100 0.0 1002274
03:00+2sw489496 0.1 1002520
06:00+2sw359185 0.1 1002340
09:00+4w578998 0.3 1003640
12:00+7w5766100 0.2 10041450
15:00+6wsw3579100 0.6 1006676
18:00+6sw3479100 0.1 1007668
21:00+3wsw239280 0.3 100847
25 may, wed
wed2500:00+3wnw228591 0.0 1008101
03:00+1nw228820 0.0 100845
06:00+3nw238317 0.0 1009252
09:00+7nw456846 0.1 10091182
12:00+9nw565881 0.4 10091650
15:00+9wnw565680 0.6 10091530
18:00+8wnw577098 0.3 1010725
21:00+4w4108792 0.3 1011283
26 may, thu
thu2600:00+5w41090100 0.1 1011802
03:00+4w499371 0.1 1012318
06:00+4wsw598662 0.0 1012372
09:00+9wsw576540 0.1 10121337
12:00+11sw6859100 0.6 10111595
15:00+10sw797299 1.4 10101369
18:00+10sw51079100 0.4 1009869
21:00+9ssw51288100 0.4 1008358
27 may, fri
fri2700:00+8s4996100 3.3 1007329
03:00+9s5998100 7.1 1005274
06:00+8sse81696100 3.3 1002575
09:00+9s81596100 6.1 999775
12:00+10ssw81392100 1.1 999695
15:00+10sw71391100 1.8 1000797
18:00+12sw598797 0.3 1001621
21:00+10sw499699 1.3 1002355
28 may, sat
sat2800:00+10wsw6129797 0.2 1003488
03:00+9wsw5993100 0.3 1005523
06:00+10sw479361 0.0 1006332
09:00+13ssw697883 0.0 1006720
12:00+13s81380100 0.7 10051149
15:00+12s61492100 3.5 1003884
18:00+12sw61393100 3.8 1004716
21:00+11sw5119586 3.8 1006385